TAP44M LPPT-LPMA

Flight info

Callsign TAP44M
Flight time 0h 55m
Altitude 33000
Route ULVOT DCT GALPA DCT RAKUN
Aircraft A320/M-SDE3FGHIRWY/LB1

Departure

Time 2026-05-04 16:15
Airport Lisbon Humberto Delgado Airport (LPPT)

Arrival

Time 2026-05-04 17:11
Airport Cristiano Ronaldo International Airport (LPMA)
Time Latitude Longitude Altitude Speed Heading
2026-05-04 15:47 38.77299 -9.13164 352 ft 0 kts 78°
2026-05-04 16:05 38.77298 -9.13168 347 ft 1 kts 78°
2026-05-04 16:06 38.77296 -9.13184 356 ft 2 kts 78°
2026-05-04 16:06 38.77278 -9.13234 350 ft 0 kts 353°
2026-05-04 16:09 38.77280 -9.13234 347 ft 1 kts 353°
2026-05-04 16:09 38.77295 -9.13238 354 ft 0 kts 344°
2026-05-04 16:10 38.77324 -9.13301 351 ft 10 kts 247°
2026-05-04 16:11 38.77140 -9.13330 347 ft 19 kts 168°
2026-05-04 16:11 38.77017 -9.13294 357 ft 17 kts 167°
2026-05-04 16:12 38.76763 -9.13254 354 ft 2 kts 260°
2026-05-04 16:12 38.76678 -9.13445 347 ft 12 kts 214°
2026-05-04 16:13 38.76613 -9.13736 354 ft 28 kts 257°
2026-05-04 16:13 38.76504 -9.14192 350 ft 23 kts 281°
2026-05-04 16:14 38.76651 -9.14384 339 ft 4 kts 22°
2026-05-04 16:14 38.77101 -9.14148 350 ft 97 kts 22°
2026-05-04 16:15 38.79971 -9.12644 1467 ft 162 kts 18°
2026-05-04 16:16 38.82260 -9.11238 2188 ft 208 kts 27°
2026-05-04 16:16 38.86484 -9.07952 3892 ft 254 kts 28°
2026-05-04 16:17 38.88316 -9.04040 5461 ft 280 kts 89°
2026-05-04 16:18 38.85157 -8.97858 7890 ft 292 kts 156°
2026-05-04 16:18 38.83217 -8.97146 8661 ft 292 kts 178°
2026-05-04 16:19 38.77424 -8.99416 10509 ft 311 kts 206°
2026-05-04 16:19 38.73159 -9.01723 11104 ft 348 kts 206°
2026-05-04 16:20 38.66335 -9.05359 13134 ft 359 kts 207°
2026-05-04 16:20 38.61671 -9.07841 14447 ft 366 kts 207°
2026-05-04 16:21 38.50728 -9.13692 16106 ft 389 kts 207°
2026-05-04 16:22 38.40287 -9.20014 16088 ft 425 kts 221°
2026-05-04 16:22 38.26096 -9.33833 17968 ft 432 kts 221°
2026-05-04 16:23 38.11587 -9.47897 20045 ft 442 kts 221°
2026-05-04 16:24 37.92288 -9.67182 23304 ft 435 kts 225°
2026-05-04 16:25 37.79600 -9.80816 25565 ft 428 kts 225°
2026-05-04 16:26 37.47436 -10.22561 31822 ft 403 kts 237°
2026-05-04 16:26 37.26567 -10.55092 33073 ft 395 kts 237°
2026-05-04 16:28 36.91629 -11.08857 33094 ft 401 kts 235°
2026-05-04 16:29 36.42049 -11.83728 33153 ft 399 kts 234°
2026-05-04 16:31 36.06926 -12.35751 33130 ft 391 kts 236°
2026-05-04 16:32 35.64580 -12.97443 33153 ft 395 kts 234°
2026-05-04 16:33 35.36080 -13.38329 33160 ft 392 kts 234°
2026-05-04 16:34 35.14782 -13.68596 33153 ft 390 kts 233°
2026-05-04 16:35 35.02239 -13.86277 33160 ft 390 kts 233°
2026-05-04 16:36 34.96927 -13.93746 33161 ft 390 kts 233°
2026-05-04 16:37 34.91600 -14.01223 33130 ft 390 kts 233°
2026-05-04 16:38 34.84468 -14.11199 33138 ft 391 kts 232°
2026-05-04 16:39 34.75513 -14.23685 33147 ft 392 kts 232°
2026-05-04 16:40 34.68335 -14.33672 33141 ft 392 kts 232°
2026-05-04 16:41 34.59348 -14.46095 33136 ft 393 kts 232°
2026-05-04 16:43 34.50917 -14.57745 33133 ft 393 kts 232°
2026-05-04 16:43 34.45487 -14.65219 33140 ft 394 kts 231°
2026-05-04 16:45 34.34388 -14.80001 33149 ft 396 kts 229°
2026-05-04 16:46 34.24791 -14.92004 33135 ft 397 kts 229°
2026-05-04 16:47 34.15552 -15.03658 33132 ft 400 kts 229°
2026-05-04 16:48 34.00063 -15.23084 33123 ft 403 kts 229°
2026-05-04 16:49 33.92204 -15.32894 32502 ft 418 kts 229°
2026-05-04 16:49 33.84392 -15.42638 31048 ft 386 kts 229°
2026-05-04 16:50 33.77059 -15.51721 29057 ft 372 kts 229°
2026-05-04 16:50 33.69948 -15.60537 26877 ft 363 kts 229°
2026-05-04 16:51 33.63007 -15.69116 25138 ft 351 kts 229°
2026-05-04 16:51 33.59586 -15.73336 25124 ft 355 kts 229°
2026-05-04 16:51 33.52653 -15.81794 25121 ft 356 kts 227°
2026-05-04 16:52 33.45565 -15.90016 24241 ft 356 kts 227°
2026-05-04 16:52 33.42036 -15.94133 23219 ft 352 kts 226°
2026-05-04 16:53 33.35078 -16.02251 21318 ft 343 kts 226°
2026-05-04 16:53 33.24853 -16.14167 18525 ft 341 kts 225°
2026-05-04 16:54 33.21463 -16.18110 17572 ft 339 kts 225°
2026-05-04 16:55 33.08136 -16.33547 14072 ft 333 kts 225°
2026-05-04 16:55 33.01528 -16.41176 12253 ft 327 kts 225°
2026-05-04 16:56 32.94921 -16.48798 10437 ft 321 kts 224°
2026-05-04 16:56 32.90239 -16.54052 9857 ft 292 kts 222°
2026-05-04 16:57 32.88747 -16.55631 9433 ft 281 kts 221°
2026-05-04 16:57 32.85950 -16.58577 8715 ft 261 kts 221°
2026-05-04 16:58 32.81882 -16.62724 7138 ft 251 kts 212°
2026-05-04 16:58 32.80338 -16.63652 6685 ft 248 kts 201°
2026-05-04 16:59 32.77090 -16.64969 5794 ft 245 kts 200°
2026-05-04 17:00 32.70733 -16.67989 3822 ft 256 kts 210°
2026-05-04 17:00 32.66535 -16.70852 3546 ft 218 kts 210°
2026-05-04 17:01 32.64299 -16.73240 3261 ft 215 kts 229°
2026-05-04 17:01 32.62418 -16.75797 3009 ft 193 kts 230°
2026-05-04 17:02 32.61514 -16.78333 2630 ft 164 kts 284°
2026-05-04 17:02 32.63114 -16.80119 1944 ft 164 kts 339°
2026-05-04 17:03 32.64204 -16.80360 1656 ft 156 kts 355°
2026-05-04 17:03 32.65297 -16.80320 1258 ft 157 kts 359°
2026-05-04 17:03 32.67415 -16.79930 612 ft 154 kts 26°
2026-05-04 17:04 32.69035 -16.78329 197 ft 152 kts 47°
2026-05-04 17:04 32.70424 -16.76570 874 ft 162 kts 51°
2026-05-04 17:05 32.71944 -16.74322 1959 ft 193 kts 52°
2026-05-04 17:05 32.72173 -16.71050 2712 ft 222 kts 127°
2026-05-04 17:06 32.69745 -16.69835 3008 ft 185 kts 197°
2026-05-04 17:06 32.68613 -16.70412 3027 ft 171 kts 207°
2026-05-04 17:07 32.66493 -16.71589 2574 ft 163 kts 206°
2026-05-04 17:07 32.65829 -16.71953 2472 ft 156 kts 206°
2026-05-04 17:07 32.64570 -16.72739 2110 ft 152 kts 223°
2026-05-04 17:07 32.63895 -16.73652 1960 ft 142 kts 230°
2026-05-04 17:08 32.63271 -16.74533 1704 ft 138 kts 230°
2026-05-04 17:08 32.62046 -16.76270 1057 ft 136 kts 230°
2026-05-04 17:08 32.61670 -16.77265 989 ft 138 kts 263°
2026-05-04 17:09 32.61929 -16.78360 978 ft 145 kts 306°
2026-05-04 17:09 32.62745 -16.79073 1034 ft 147 kts 327°
2026-05-04 17:09 32.63599 -16.79729 1032 ft 146 kts 323°
2026-05-04 17:10 32.65545 -16.80314 940 ft 152 kts 359°
2026-05-04 17:10 32.68414 -16.79073 368 ft 150 kts 44°
2026-05-04 17:11 32.69138 -16.78205 178 ft 146 kts 46°
2026-05-04 17:11 32.69639 -16.77625 176 ft 44 kts 46°
2026-05-04 17:11 32.69947 -16.77203 176 ft 13 kts 144°
2026-05-04 17:12 32.69857 -16.77181 176 ft 14 kts 186°
2026-05-04 17:12 32.69694 -16.77354 176 ft 18 kts 225°
2026-05-04 17:13 32.69481 -16.77625 176 ft 1 kts 227°
2026-05-04 17:14 32.69402 -16.77648 176 ft 4 kts 138°
2026-05-04 17:14 32.69385 -16.77630 176 ft 0 kts 139°